Weather History for Buffalo, MN

Change the Weather History Date:

Friday, January 24, 2014

  Actual Average (KSTC) Record (KSTC)
Temperature  
Mean Temperature 18 °F 12 °F  
Max Temperature 33 °F 22 °F 56 °F (1981)
Min Temperature 3 °F 2 °F -42 °F (1904)
Degree Days  
Heating Degree Days 47 53  
Month to date heating degree days 1287  
Since 1 July heating degree days 4734  
Cooling Degree Days 0 0  
Month to date cooling degree days 0  
Year to date cooling degree days 0  
Moisture  
Dew Point 16 °F    
Average Humidity 72    
Maximum Humidity 96    
Minimum Humidity 45    
Precipitation  
Precipitation 0.00 in 0.02 in 0.31 in (1950)
Month to date precipitation 0.53  
Year to date precipitation 0.53  
Snow  
Snow 0.00 in 0.20 in 3.60 in (1986)
Month to date snowfall 6.9  
Since 1 July snowfall 25.5  
Snow Depth -    
Sea Level Pressure  
Sea Level Pressure 29.67 in    
Wind  
Wind Speed 11 mph (WSW)    
Max Wind Speed 21 mph    
Max Gust Speed 30 mph    
Visibility 8 miles    
Events Rain , Snow    
T = Trace of Precipitation, MM = Missing Value Source: NWS Daily Summary

Daily Weather History Graph

Daily Weather History Graph

Search for Another Location

Airport:

Trip Planner

Search our weather history database for the weather conditions in past years. The results will help you decide how hot, cold, wet, or windy it might be!

Date:

Astronomy

Jan. 24, 2014 Rise Set
Actual Time 7:43 AM CST 5:11 PM CST
Civil Twilight 7:11 AM CST 5:43 PM CST
Nautical Twilight 6:35 AM CST 6:19 PM CST
Astronomical Twilight 6:01 AM CST 6:54 PM CST
Moon 1:07 AM CST (1/24) 11:33 AM CST (1/24)
Length of Visible Light 10h 31m
Length of Day
9h 27m
Last Quarter, 44% of the Moon is Illuminated
Jan 24
Last Quarter
Jan 30
New
Feb 6
First Quarter
Feb 14
Full
Feb 22
Last Quarter

Hourly Weather History & Observations

Time (CST) Temp. Windchill Dew Point Humidity Pressure Visibility Wind Dir Wind Speed Gust Speed Precip Events Conditions
12:16 AM 3.9 °F -10.4 °F -5.4 °F 65% 30.11 in 10.0 mi South 9.2 mph - N/A   Mostly Cloudy
12:36 AM 5.5 °F -10.2 °F -4.9 °F 62% 30.08 in 10.0 mi South 11.5 mph 18.4 mph N/A   Overcast
12:56 AM 6.4 °F -11.1 °F -4.5 °F 61% 30.04 in 10.0 mi South 15.0 mph 19.6 mph N/A   Mostly Cloudy
1:16 AM 7.7 °F -8.2 °F -4.0 °F 59% 30.02 in 10.0 mi South 12.7 mph 19.6 mph N/A   Mostly Cloudy
1:36 AM 9.5 °F -7.2 °F -3.1 °F 57% 29.99 in 10.0 mi SSW 15.0 mph 23.0 mph N/A   Overcast
1:56 AM 10.0 °F -5.2 °F -2.4 °F 57% 29.96 in 10.0 mi South 12.7 mph 21.9 mph N/A   Mostly Cloudy
2:16 AM 10.8 °F -6.2 °F -2.0 °F 56% 29.96 in 10.0 mi SSW 16.1 mph 26.5 mph N/A   Mostly Cloudy
2:36 AM 11.3 °F -2.9 °F -1.1 °F 57% 29.93 in 10.0 mi South 11.5 mph 19.6 mph N/A   Overcast
2:56 AM 12.2 °F -1.8 °F -0.4 °F 57% 29.91 in 10.0 mi SSW 11.5 mph 20.7 mph N/A   Overcast
3:16 AM 12.7 °F -1.8 °F 0.7 °F 59% 29.90 in 10.0 mi SSW 12.7 mph 20.7 mph N/A   Overcast
3:35 AM 13.6 °F -1.3 °F 1.6 °F 59% 29.88 in 10.0 mi SSW 13.8 mph 20.7 mph N/A   Overcast
3:56 AM 14.0 °F 0.5 °F 2.8 °F 61% 29.87 in 10.0 mi SSW 11.5 mph - N/A   Overcast
4:16 AM 14.7 °F 1.4 °F 3.7 °F 62% 29.85 in 10.0 mi SSW 11.5 mph - N/A   Overcast
4:35 AM 16.2 °F 3.2 °F 7.2 °F 68% 29.84 in 5.0 mi SSW 11.5 mph 19.6 mph N/A Snow Light Snow
4:56 AM 16.2 °F 1.9 °F 9.1 °F 74% 29.83 in 7.0 mi SSW 13.8 mph 18.4 mph N/A   Overcast
5:16 AM 16.7 °F 5.3 °F 9.0 °F 72% 29.81 in 10.0 mi SSW 9.2 mph - N/A   Overcast
5:35 AM 16.7 °F 5.3 °F 9.0 °F 72% 29.80 in 10.0 mi SSW 9.2 mph - N/A   Overcast
5:56 AM 17.4 °F 6.2 °F 9.0 °F 69% 29.78 in 10.0 mi SSW 9.2 mph - N/A   Overcast
6:15 AM 18.5 °F 4.9 °F 9.3 °F 67% 29.76 in 10.0 mi SSW 13.8 mph 17.3 mph N/A   Overcast
6:36 AM 19.9 °F 7.9 °F 10.4 °F 67% 29.76 in 10.0 mi SSW 11.5 mph 17.3 mph N/A   Overcast
6:56 AM 20.3 °F 10.6 °F 10.9 °F 67% 29.76 in 10.0 mi SW 8.1 mph - N/A   Overcast
7:15 AM 21.0 °F 13.4 °F 11.3 °F 66% 29.76 in 10.0 mi SW 5.8 mph - N/A   Overcast
7:36 AM 21.2 °F 12.6 °F 12.2 °F 68% 29.74 in 10.0 mi SW 6.9 mph - N/A   Overcast
7:55 AM 21.9 °F 15.7 °F 12.9 °F 68% 29.73 in 10.0 mi SW 4.6 mph - N/A   Overcast
8:16 AM 22.3 °F 13.9 °F 13.3 °F 68% 29.73 in 10.0 mi WSW 6.9 mph - N/A   Overcast
8:36 AM 22.8 °F 16.7 °F 14.0 °F 69% 29.72 in 10.0 mi SW 4.6 mph - N/A   Overcast
8:56 AM 23.5 °F 16.4 °F 14.9 °F 70% 29.70 in 10.0 mi SW 5.8 mph - N/A   Overcast
9:16 AM 23.9 °F 16.8 °F 15.4 °F 70% 29.70 in 10.0 mi SW 5.8 mph - N/A   Overcast
9:36 AM 24.6 °F 17.7 °F 16.0 °F 70% 29.69 in 10.0 mi SW 5.8 mph - N/A   Overcast
9:56 AM 25.3 °F 17.6 °F 16.7 °F 70% 29.68 in 10.0 mi SSW 6.9 mph - N/A   Overcast
10:16 AM 25.9 °F 19.2 °F 18.0 °F 72% 29.68 in 10.0 mi SW 5.8 mph - N/A   Overcast
10:36 AM 26.6 °F 21.2 °F 19.2 °F 74% 29.67 in 10.0 mi SW 4.6 mph - N/A   Overcast
10:56 AM 28.0 °F 20.8 °F 20.3 °F 73% 29.66 in 10.0 mi SW 6.9 mph - N/A   Overcast
11:16 AM 28.8 °F 21.7 °F 21.2 °F 73% 29.64 in 10.0 mi SW 6.9 mph - N/A   Mostly Cloudy
11:36 AM 30.2 °F 21.3 °F 22.5 °F 73% 29.63 in 10.0 mi WSW 10.4 mph - N/A   Scattered Clouds
11:55 AM 30.2 °F 20.2 °F 23.0 °F 75% 29.62 in 10.0 mi WSW 12.7 mph - N/A   Mostly Cloudy
12:16 PM 30.7 °F 20.0 °F 23.7 °F 75% 29.60 in 10.0 mi WSW 15.0 mph 18.4 mph N/A   Scattered Clouds
12:36 PM 30.9 °F 21.2 °F 23.9 °F 75% 29.59 in 10.0 mi WSW 12.7 mph 19.6 mph N/A   Scattered Clouds
12:55 PM 30.2 °F 19.8 °F 23.9 °F 77% 29.58 in 10.0 mi WSW 13.8 mph 18.4 mph N/A   Overcast
1:16 PM 30.0 °F 19.5 °F 23.9 °F 78% 29.56 in 10.0 mi WSW 13.8 mph 18.4 mph N/A   Overcast
1:36 PM 30.0 °F 20.5 °F 23.9 °F 78% 29.55 in 10.0 mi WSW 11.5 mph 21.9 mph N/A   Overcast
1:56 PM 29.8 °F 18.9 °F 23.9 °F 79% 29.55 in 10.0 mi WSW 15.0 mph - N/A   Overcast
2:16 PM 30.2 °F 21.3 °F 24.4 °F 79% 29.53 in 10.0 mi WSW 10.4 mph - N/A   Overcast
2:36 PM 30.7 °F 22.0 °F 24.6 °F 78% 29.53 in 10.0 mi West 10.4 mph - N/A   Overcast
2:56 PM 31.1 °F 23.1 °F 24.8 °F 77% 29.52 in 10.0 mi West 9.2 mph - N/A   Overcast
3:16 PM 32.0 °F 23.6 °F 25.7 °F 78% 29.51 in 10.0 mi West 10.4 mph 16.1 mph N/A   Overcast
3:36 PM 31.1 °F 24.5 °F 27.5 °F 87% 29.50 in 0.2 mi WSW 6.9 mph 10.4 mph N/A Snow Snow
3:56 PM 30.2 °F 25.4 °F 27.9 °F 91% 29.49 in 0.5 mi SW 4.6 mph - N/A Snow Light Snow
4:16 PM 30.2 °F 24.3 °F 28.4 °F 93% 29.49 in 0.8 mi WSW 5.8 mph - N/A Snow Light Snow
4:36 PM 30.9 °F 24.3 °F 29.1 °F 93% 29.48 in 1.0 mi WSW 6.9 mph - N/A Snow Light Snow
4:56 PM 31.6 °F 24.4 °F 29.8 °F 93% 29.48 in 1.0 mi WSW 8.1 mph - N/A Snow Light Snow
5:16 PM 32.0 °F 24.8 °F 30.2 °F 93% 29.48 in 1.5 mi West 8.1 mph - N/A Snow Light Snow
5:36 PM 32.0 °F 25.6 °F 30.6 °F 94% 29.48 in 4.0 mi West 6.9 mph - N/A Snow Light Snow
5:56 PM 32.0 °F 24.2 °F 30.9 °F 96% 29.49 in 5.0 mi West 9.2 mph - N/A Snow Light Snow
6:16 PM 32.7 °F 24.5 °F 30.9 °F 93% 29.49 in 7.0 mi West 10.4 mph - N/A Rain Light Rain
6:36 PM 32.9 °F 24.7 °F 30.7 °F 92% 29.49 in 4.0 mi WNW 10.4 mph - N/A Snow Light Snow
6:56 PM 32.9 °F 24.7 °F 30.4 °F 90% 29.49 in 10.0 mi WNW 10.4 mph 16.1 mph N/A   Overcast
7:16 PM 33.1 °F 24.9 °F 29.1 °F 85% 29.50 in 10.0 mi WNW 10.4 mph 19.6 mph N/A   Overcast
7:36 PM 33.1 °F 24.4 °F 28.4 °F 83% 29.51 in 10.0 mi WNW 11.5 mph 19.6 mph N/A   Overcast
7:56 PM 32.9 °F 22.8 °F 27.1 °F 79% 29.51 in 10.0 mi WNW 15.0 mph 25.3 mph N/A   Overcast
8:15 PM 32.4 °F 23.0 °F 25.3 °F 75% 29.51 in 10.0 mi WNW 12.7 mph 23.0 mph N/A   Overcast
8:36 PM 32.0 °F 23.0 °F 23.5 °F 71% 29.51 in 10.0 mi WNW 11.5 mph 23.0 mph N/A   Overcast
8:55 PM 31.6 °F 21.2 °F 22.5 °F 69% 29.52 in 5.0 mi WNW 15.0 mph 25.3 mph N/A   Haze
9:16 PM 31.6 °F 20.7 °F 22.8 °F 70% 29.52 in 3.0 mi WNW 16.1 mph 27.6 mph N/A Snow Light Snow
9:36 PM 30.9 °F 22.2 °F 22.3 °F 70% 29.52 in 10.0 mi WNW 10.4 mph 17.3 mph N/A   Mostly Cloudy
9:56 PM 30.2 °F 17.4 °F 21.2 °F 69% 29.53 in 3.0 mi WNW 20.7 mph 29.9 mph N/A Snow Light Snow
10:16 PM 30.0 °F 19.5 °F 20.1 °F 67% 29.54 in 10.0 mi WNW 13.8 mph 26.5 mph N/A   Scattered Clouds
10:35 PM 29.5 °F 16.8 °F 17.6 °F 61% 29.55 in 10.0 mi NW 19.6 mph 27.6 mph N/A   Mostly Cloudy
10:56 PM 28.2 °F 16.3 °F 17.1 °F 63% 29.57 in 7.0 mi NW 16.1 mph 25.3 mph N/A   Mostly Cloudy
11:16 PM 24.3 °F 11.7 °F 5.4 °F 45% 29.59 in 5.0 mi NW 15.0 mph 25.3 mph N/A Snow Light Snow
11:35 PM 23.0 °F 10.6 °F 4.3 °F 45% 29.60 in 10.0 mi WNW 13.8 mph 23.0 mph N/A   Clear
11:56 PM 21.4 °F 7.1 °F 5.7 °F 51% 29.61 in 10.0 mi WNW 17.3 mph 27.6 mph N/A   Clear